Location: Clanezzo
(45.7500°N, 9.6000°E)
Time: 02:50:15
(UTC+00:00)

ATLAS 2AS CENTAUR R/B - Pass Details

Date: 12 May 2021
Orbit: 949 x 1263 km, 63.7° (Epoch: 07 May)

Event Time Altitude Azimuth Distance (km) Brightness Sun altitude
Rises 22:30:12 0° 318° (NW) 4,068 6.7 -25.0°
Reaches altitude 10° 22:33:11 10° 311° (NW) 3,057 5.8 -25.1°
Maximum altitude 22:39:47 39° 246° (WSW) 1,569 3.4 -25.3°
Enters shadow 22:40:56 37° 223° (SW) 1,618 3.3 -25.3°
